Location: Ku?niki
(51.4449°N, 17.8974°E)
Time: 05:38:32
(UTC+00:00)

DX 1 - Pass Details

Date: 03 July 2022
Orbit: 616 x 630 km, 98.4° (Epoch: 17 August)

Event Time Altitude Azimuth Distance (km) Brightness Sun altitude
Rises 19:57:37 0° 17° (NNE) 2,935 ? -6.3°
Reaches altitude 10° 19:59:51 10° 20° (NNE) 2,021 ? -6.5°
Maximum altitude 20:04:13 63° 102° (ESE) 705 ? -7.0°
Drops below altitude 10° 20:08:32 10° 184° (S) 1,998 ? -7.4°
Sets 20:10:44 0° 188° (S) 2,899 ? -7.6°
Enters shadow 20:10:45 - 188° (S) 2,906 ? -7.6°
